[[{"header":{"parameterUnit":"m.s-1","parameterCategory":1,"la1":30.2991,"la2":30.254,"lo1":-89.0895,"lo2":-89.0444,"dy":0.0017,"dx":0.0017,"nx":28,"ny":28,"refTime":"2025-06-13T09:00:00:Z","depth":0,"parameterNumber":2,"parameterNumberName":"U-component_of_WINDS"},"data":[0,0,0,0,0,0,0,0,0,0,0,0,0,0,0,0,0,0,0,0,0,0,0,0,0,0,0,0,0,0,0,0,0,0,0,0,0,0,0,0,0,0,0,0,0,0,0,0,0,0,0,0,0,0,0,0,0,0,-1.3297,-1.3296,0,-1.3179,-1.3177,-1.3176,-1.3098,-1.3097,-1.3097,-1.3096,-1.2973,-1.2971,-1.2968,0,0,0,0,0,0,0,0,0,0,0,0,0,-1.3453,-1.3451,-1.3297,-1.3295,-1.3294,-1.3179,-1.3177,-1.3176,-1.3098,-1.3097,-1.3096,-1.3096,-1.2974,-1.2971,-1.2968,0,0,0,0,0,0,0,0,0,0,0,0,0,-1.3365,-1.345,-1.3297,-1.3241,-1.3235,-1.3179,-1.3177,-1.3175,-1.3098,-1.3097,-1.3096,-1.3096,-1.2975,-1.2971,-1.2967,-1.2957,0,0,-1.2955,-1.2953,0,0,0,0,0,0,0,0,-1.337,-1.336,-1.3251,-1.3245,-1.3238,-1.3152,-1.3187,-1.3102,-1.3098,-1.315,-1.3096,-1.3095,-1.3033,-1.3024,-1.3004,-1.2952,-1.2946,-1.2954,-1.2952,-1.295,-1.2949,0,0,0,0,0,0,0,-1.3377,-1.3364,-1.325,-1.3249,-1.3241,-1.3221,-1.3208,-1.3171,-1.3097,-1.3145,-1.3139,-1.3127,-1.303,-1.3008,-1.3,-1.2944,-1.2954,-1.2951,-1.2948,-1.2946,-1.2877,-1.2878,0,0,0,0,0,0,-1.3392,-1.337,-1.3254,-1.3247,-1.3304,-1.3219,-1.3204,-1.318,-1.3098,-1.3084,-1.3127,-1.3123,-1.3016,-1.3005,-1.2996,-1.2978,-1.295,-1.2946,-1.2944,-1.2877,-1.2878,-1.2878,0,0,0,0,0,0,-1.3395,-1.3382,-1.3259,-1.3306,-1.3289,-1.3218,-1.3191,-1.3179,-1.3157,-1.3084,-1.307,-1.3119,-1.3015,-1.3002,-1.2967,-1.2973,-1.2944,-1.294,-1.2876,-1.2877,-1.2878,-1.2943,0,0,0,0,0,0,-1.34,-1.3384,-1.338,-1.3307,-1.3287,-1.3233,-1.3192,-1.3177,-1.315,-1.3144,-1.3073,-1.306,-1.3013,-1.2974,-1.2963,-1.2966,-1.2937,-1.2875,-1.2876,-1.2878,-1.294,-1.2946,-1.2951,0,0,0,0,0,-1.3406,-1.3402,-1.338,-1.3366,-1.328,-1.3233,-1.3222,-1.3168,-1.3151,-1.3146,-1.3099,-1.3062,-1.2974,-1.2971,-1.2958,-1.296,-1.2875,-1.2876,-1.2878,-1.2937,-1.2945,-1.2951,0,0,0,0,0,0,-1.3476,-1.3392,-1.3366,-1.3339,-1.3294,-1.322,-1.3212,-1.3178,-1.3137,-1.3132,-1.3067,-1.3052,-1.3024,-1.2989,-1.2987,-1.2946,-1.292,-1.2919,-1.297,-1.2976,-1.2982,-1.299,-1.2934,0,0,0,0,0,-1.3489,-1.3459,-1.3386,-1.3369,-1.3348,-1.3284,-1.3262,-1.3224,-1.3175,-1.3155,-1.3106,-1.3059,-1.3021,-1.2997,-1.2958,-1.2935,-1.2918,-1.293,-1.2936,-1.2941,-1.294,-1.2925,-1.2929,-1.2883,-1.2883,-1.2883,0,0,-1.3514,-1.3464,-1.3449,-1.3382,-1.3343,-1.3312,-1.3268,-1.3238,-1.3214,-1.315,-1.3115,-1.3078,-1.3021,-1.2992,-1.2977,-1.2962,-1.2949,-1.2943,-1.2947,-1.2944,-1.2927,-1.2931,-1.2935,-1.2884,-1.2884,-1.2884,0,0,-1.3544,-1.3504,-1.3485,-1.3447,-1.3388,-1.3346,-1.3342,-1.3273,-1.3246,-1.321,-1.3162,-1.3132,-1.3068,-1.3029,-1.3001,-1.3018,-1.2982,-1.3007,-1.3036,-1.3022,-1.3025,-1.3028,-1.3033,-1.3036,-1.3007,-1.3007,-1.3007,0,-1.3583,-1.3535,-1.3479,-1.3451,-1.3423,-1.3365,-1.3345,-1.3311,-1.3243,-1.3224,-1.3209,-1.3127,-1.3085,-1.3046,-1.305,-1.303,-1.3022,-1.3014,-1.3029,-1.3032,-1.3034,-1.3037,-1.304,-1.3011,-1.301,-1.301,-1.301,0,-1.3584,-1.3552,-1.3543,-1.348,-1.3451,-1.3427,-1.3367,-1.3345,-1.3311,-1.327,-1.3234,-1.3181,-1.313,-1.3119,-1.3085,-1.3075,-1.3068,-1.3042,-1.3014,-1.3042,-1.3045,-1.3046,-1.3015,-1.3014,-1.3013,-1.3012,0,0,-1.3653,-1.356,-1.3558,-1.3528,-1.346,-1.3434,-1.3407,-1.3358,-1.3339,-1.3295,-1.327,-1.3218,-1.3194,-1.3162,-1.3123,-1.3111,-1.3127,-1.3087,-1.3084,-1.3095,-1.3112,-1.3131,-1.3133,-1.3104,-1.3104,-1.3104,-1.3116,0,-1.3672,-1.3622,-1.3572,-1.3539,-1.3508,-1.3454,-1.3431,-1.3386,-1.3348,-1.3316,-1.3273,-1.3236,-1.3208,-1.3188,-1.3174,-1.3128,-1.3129,-1.3127,-1.3079,-1.3078,-1.3093,-1.3135,-1.3154,-1.3169,-1.3117,-1.3117,-1.3117,0,-1.3687,-1.3645,-1.361,-1.3545,-1.353,-1.351,-1.3461,-1.3431,-1.3379,-1.3352,-1.3318,-1.3277,-1.3246,-1.3224,-1.3179,-1.3179,-1.3157,-1.3131,-1.3131,-1.3123,-1.3098,-1.3127,-1.3172,-1.3174,-1.3118,-1.3118,-1.3118,0,-1.3739,-1.3675,-1.3645,-1.3621,-1.3545,-1.3532,-1.35,-1.3447,-1.3421,-1.3378,-1.336,-1.3315,-1.3289,-1.3254,-1.3202,-1.3191,-1.3164,-1.3137,-1.3139,-1.3141,-1.3135,-1.3135,-1.3176,-1.3123,-1.3123,-1.3123,-1.3123,0,-1.3764,-1.3745,-1.3667,-1.3649,-1.3625,-1.3568,-1.3546,-1.3508,-1.3463,-1.3436,-1.3386,-1.3362,-1.3295,-1.3263,-1.3222,-1.3191,-1.3181,-1.3157,-1.3146,-1.3161,-1.3164,-1.3144,-1.3141,-1.3124,-1.3124,-1.3123,-1.3123,0,-1.3819,-1.3766,-1.373,-1.3661,-1.3643,-1.3629,-1.3569,-1.3549,-1.3509,-1.3475,-1.3464,-1.34,-1.336,-1.3305,-1.3247,-1.322,-1.3194,-1.3177,-1.3211,-1.3204,-1.321,-1.321,-1.3238,-1.3238,-1.3188,-1.3188,-1.3189,0,-1.3837,-1.3821,-1.375,-1.3729,-1.3698,-1.3665,-1.3638,-1.3581,-1.3555,-1.3495,-1.3482,-1.3438,-1.3399,-1.3337,-1.3285,-1.3241,-1.3222,-1.3235,-1.3215,-1.323,-1.3221,-1.3222,-1.3219,-1.3239,-1.324,-1.3241,-1.3242,0,-1.3876,-1.3851,-1.3814,-1.3769,-1.3738,-1.3699,-1.3658,-1.3643,-1.3578,-1.3551,-1.3509,-1.348,-1.3421,-1.3377,-1.3326,-1.3292,-1.3256,-1.3249,-1.3247,-1.326,-1.328,-1.3268,-1.3223,-1.3248,-1.3247,-1.3247,-1.3246,-1.3246,-1.3911,-1.3894,-1.3842,-1.3803,-1.3766,-1.3729,-1.3707,-1.3664,-1.3628,-1.3576,-1.3545,-1.3505,-1.3453,-1.3381,-1.3349,-1.3316,-1.3301,-1.3299,-1.3298,-1.3298,-1.3302,-1.3287,-1.3306,-1.3306,-1.3306,-1.3306,-1.3305,0,-1.3946,-1.391,-1.3875,-1.3819,-1.3788,-1.3758,-1.3711,-1.3687,-1.3652,-1.3608,-1.3572,-1.3523,-1.3481,-1.3426,-1.338,-1.3364,-1.3346,-1.3354,-1.3354,-1.3346,-1.3318,-1.3324,-1.3369,-1.3369,-1.3369,-1.3369,-1.3369,-1.3369,-1.396,-1.3929,-1.3899,-1.3849,-1.3813,-1.3773,-1.3749,-1.3714,-1.3678,-1.3627,-1.3592,-1.3557,-1.3508,-1.3458,-1.3418,-1.3403,-1.3387,-1.34,-1.338,-1.3354,-1.3348,-1.3343,-1.3348,-1.3397,-1.3397,-1.341,-1.341,-1.341]},{"header":{"parameterUnit":"m.s-1","parameterCategory":1,"la1":30.2991,"la2":30.254,"lo1":-89.0895,"lo2":-89.0444,"dy":0.0017,"dx":0.0017,"nx":28,"ny":28,"refTime":"2025-06-13T09:00:00:Z","depth":0,"parameterNumber":3,"parameterNumberName":"V-component_of_WINDS"},"data":[0,0,0,0,0,0,0,0,0,0,0,0,0,0,0,0,0,0,0,0,0,0,0,0,0,0,0,0,0,0,0,0,0,0,0,0,0,0,0,0,0,0,0,0,0,0,0,0,0,0,0,0,0,0,0,0,0,0,4.5899,4.5899,0,4.5911,4.5911,4.5911,4.59,4.5899,4.5899,4.5898,4.591,4.591,4.5911,0,0,0,0,0,0,0,0,0,0,0,0,0,4.5867,4.5868,4.5899,4.5899,4.59,4.5911,4.5911,4.5911,4.59,4.5899,4.5899,4.5898,4.591,4.591,4.5911,0,0,0,0,0,0,0,0,0,0,0,0,0,4.588,4.5868,4.5899,4.5895,4.5895,4.5911,4.5911,4.5911,4.59,4.5899,4.5899,4.5898,4.5909,4.591,4.5911,4.5932,0,0,4.5915,4.5915,0,0,0,0,0,0,0,0,4.5879,4.5881,4.5896,4.5896,4.5895,4.5903,4.5904,4.5918,4.59,4.5898,4.5898,4.5898,4.5908,4.5909,4.5913,4.5932,4.5933,4.5915,4.5915,4.5916,4.5916,0,0,0,0,0,0,0,4.5878,4.5881,4.5904,4.5896,4.5896,4.5893,4.5894,4.5907,4.5907,4.5898,4.5897,4.5899,4.5908,4.5912,4.5913,4.5933,4.5915,4.5916,4.5916,4.5917,4.5971,4.5972,0,0,0,0,0,0,4.5878,4.588,4.5904,4.5904,4.5885,4.5894,4.5895,4.5901,4.5907,4.5907,4.59,4.5898,4.591,4.5912,4.5913,4.5939,4.5916,4.5917,4.5918,4.5971,4.5972,4.5972,0,0,0,0,0,0,4.5877,4.588,4.5903,4.5892,4.5895,4.5895,4.5902,4.5902,4.5906,4.5908,4.5908,4.5904,4.591,4.5912,4.5928,4.5939,4.5917,4.5918,4.597,4.5971,4.5972,4.599,0,0,0,0,0,0,4.5876,4.588,4.5888,4.5892,4.5895,4.5917,4.5903,4.5903,4.5908,4.5907,4.5911,4.5912,4.591,4.5926,4.5929,4.594,4.5919,4.5969,4.597,4.5972,4.5988,4.5991,4.5994,0,0,0,0,0,4.5875,4.5892,4.5888,4.5891,4.5905,4.5918,4.592,4.5917,4.5909,4.5917,4.5918,4.5911,4.5937,4.5928,4.5931,4.5943,4.5968,4.597,4.5972,4.5987,4.5991,4.5994,0,0,0,0,0,0,4.5888,4.5892,4.5888,4.5906,4.5912,4.5916,4.5926,4.5921,4.5929,4.5927,4.5923,4.5925,4.5942,4.5944,4.5933,4.5964,4.5951,4.5954,4.5962,4.5966,4.5969,4.5968,4.592,0,0,0,0,0,4.5893,4.5903,4.5906,4.5922,4.5925,4.5925,4.593,4.5928,4.5934,4.5936,4.5938,4.5943,4.5953,4.5959,4.5968,4.5988,4.599,4.5998,4.6001,4.6003,4.6006,4.6018,4.6022,4.5978,4.5978,4.5978,0,0,4.5903,4.5906,4.5913,4.5925,4.5928,4.594,4.5927,4.5939,4.5947,4.5937,4.5953,4.5955,4.5961,4.5979,4.5988,4.5981,4.6018,4.6006,4.6008,4.6009,4.6021,4.6025,4.6028,4.598,4.5979,4.5979,0,0,4.5927,4.5931,4.5945,4.595,4.5956,4.5956,4.596,4.5965,4.5966,4.5981,4.5975,4.5985,4.6001,4.6006,4.601,4.6038,4.6033,4.6041,4.6057,4.6069,4.6073,4.6076,4.6087,4.6091,4.6043,4.6043,4.6043,0,4.5939,4.5956,4.5953,4.5966,4.5972,4.5964,4.5979,4.5983,4.5992,4.5996,4.5989,4.6011,4.6014,4.6034,4.6041,4.6045,4.6049,4.6041,4.6072,4.6076,4.6078,4.6089,4.6093,4.6044,4.6044,4.6044,4.6044,0,4.5971,4.5982,4.5993,4.6003,4.601,4.6024,4.6023,4.603,4.6028,4.6029,4.6046,4.6049,4.6059,4.6064,4.6061,4.6084,4.6081,4.6073,4.6061,4.6084,4.6094,4.6098,4.6046,4.6045,4.6045,4.6045,0,0,4.6004,4.6012,4.6017,4.6022,4.6029,4.6038,4.6052,4.6062,4.6069,4.6075,4.6088,4.6102,4.6096,4.6101,4.6098,4.6109,4.6133,4.61,4.61,4.6107,4.616,4.6167,4.6172,4.6129,4.613,4.613,4.6161,0,4.603,4.6054,4.6053,4.6076,4.6087,4.6081,4.6093,4.6099,4.61,4.611,4.6111,4.6122,4.6112,4.6116,4.6126,4.6128,4.6144,4.6125,4.6141,4.6142,4.6141,4.6177,4.6184,4.6212,4.6164,4.6165,4.6165,0,4.6063,4.6072,4.6097,4.6104,4.6109,4.612,4.613,4.6139,4.6146,4.6146,4.6153,4.6149,4.6164,4.615,4.6171,4.6159,4.6165,4.6167,4.6168,4.617,4.6156,4.6182,4.6221,4.6226,4.6171,4.6171,4.617,0,4.6087,4.6105,4.6122,4.6127,4.6134,4.6143,4.6146,4.6152,4.6159,4.6168,4.6173,4.6183,4.6189,4.6197,4.6196,4.6186,4.6217,4.6203,4.6219,4.6219,4.6226,4.6226,4.6269,4.6228,4.6228,4.6228,4.6228,0,4.6117,4.6133,4.6133,4.6144,4.6162,4.616,4.6178,4.618,4.6186,4.6198,4.6192,4.6203,4.62,4.6211,4.6211,4.6229,4.6231,4.6232,4.6232,4.6234,4.6234,4.6238,4.6237,4.6229,4.6229,4.6229,4.6228,0,4.6147,4.6147,4.6166,4.6173,4.6175,4.6188,4.6193,4.6204,4.6205,4.622,4.6223,4.6225,4.6238,4.6238,4.6252,4.6252,4.6274,4.6271,4.6272,4.6272,4.6288,4.6287,4.6336,4.6343,4.6297,4.6297,4.6297,0,4.6166,4.6179,4.6187,4.6195,4.6199,4.6211,4.6219,4.6217,4.6225,4.6234,4.6244,4.6257,4.6267,4.6288,4.629,4.6301,4.6299,4.6316,4.6301,4.6303,4.6302,4.6301,4.6303,4.6319,4.632,4.632,4.632,0,4.6202,4.6202,4.6213,4.6225,4.6234,4.6243,4.6251,4.6258,4.6257,4.6266,4.628,4.6288,4.6303,4.6316,4.6327,4.6331,4.6326,4.6325,4.6329,4.6332,4.6333,4.6334,4.6282,4.6324,4.6324,4.6323,4.6323,4.6323,4.6229,4.624,4.6248,4.6261,4.6267,4.6275,4.6286,4.6289,4.63,4.6313,4.6311,4.6327,4.6334,4.6349,4.6353,4.6366,4.636,4.6366,4.6368,4.637,4.6372,4.633,4.6367,4.6367,4.6367,4.6367,4.6367,0,4.6266,4.6271,4.6283,4.6295,4.6305,4.63,4.6309,4.6318,4.6332,4.6339,4.635,4.6366,4.6378,4.6382,4.6395,4.6404,4.6402,4.6407,4.6407,4.6409,4.6376,4.6371,4.6409,4.6409,4.6409,4.6409,4.6409,4.6409,4.6286,4.6306,4.6307,4.6329,4.6334,4.635,4.6356,4.6363,4.637,4.6388,4.6399,4.6401,4.6408,4.6421,4.6432,4.6433,4.6439,4.6445,4.6445,4.6415,4.6411,4.6407,4.6403,4.6446,4.6446,4.6477,4.6478,4.6478]}]]